| time (UTC) | temp F | wind direction | speed MPH | gust MPH | rain 1hr in | rain 24hr in | rain mn in | humidity % | barometer mb |
| 20260508073131 | 42 | 13 | 1.0 | 3.0 | 0.00 | 0.00 | 0.00 | 86 | 1017.8 |
| 20260508072630 | 42 | 12 | 1.0 | 3.0 | 0.00 | 0.00 | 0.00 | 86 | 1017.7 |
| 20260508072130 | 42 | 11 | 2.0 | 3.0 | 0.00 | 0.00 | 0.00 | 86 | 1017.6 |
| 20260508071630 | 42 | 12 | 1.0 | 3.0 | 0.00 | 0.00 | 0.00 | 86 | 1017.6 |
| 20260508070630 | 42 | 12 | 2.0 | 5.0 | 0.00 | 0.00 | 0.00 | 86 | 1017.6 |
| 20260508070130 | 42 | 12 | 1.0 | 2.0 | 0.00 | 0.00 | 0.00 | 87 | 1017.6 |
| 20260508065630 | 42 | 12 | 1.0 | 3.0 | 0.00 | 0.00 | 0.00 | 88 | 1017.5 |
| 20260508065130 | 42 | 11 | 2.0 | 3.0 | 0.00 | 0.00 | 0.00 | 88 | 1017.5 |
| 20260508064130 | 44 | 11 | 0.0 | 2.0 | 0.00 | 0.00 | 0.00 | 88 | 1017.4 |
| 20260508063630 | 44 | 11 | 1.0 | 3.0 | 0.00 | 0.00 | 0.00 | 88 | 1017.3 |
| 20260508063130 | 44 | 11 | 1.0 | 3.0 | 0.00 | 0.00 | 0.00 | 87 | 1017.3 |
| 20260508062630 | 46 | 11 | 1.0 | 5.0 | 0.00 | 0.00 | 0.00 | 85 | 1017.3 |
| 20260508062130 | 46 | 0 | 1.0 | 3.0 | 0.00 | 0.00 | 0.00 | 86 | 1017.2 |
| 20260508061130 | 46 | 0 | 1.0 | 3.0 | 0.00 | 0.00 | 0.00 | 86 | 1017.2 |
| 20260508060131 | 45 | 0 | 1.0 | 3.0 | 0.00 | 0.00 | 0.00 | 86 | 1017.1 |
| 20260508055630 | 45 | 0 | 2.0 | 5.0 | 0.00 | 0.00 | 0.00 | 82 | 1017.1 |
| 20260508055130 | 45 | 0 | 1.0 | 5.0 | 0.00 | 0.00 | 0.00 | 83 | 1017.0 |
| 20260508054630 | 45 | 0 | 2.0 | 5.0 | 0.00 | 0.00 | 0.00 | 82 | 1017.1 |
| 20260508054130 | 45 | 0 | 2.0 | 3.0 | 0.00 | 0.00 | 0.00 | 83 | 1017.2 |
| 20260508053630 | 44 | 0 | 0.0 | 3.0 | 0.00 | 0.00 | 0.00 | 87 | 1017.2 |
| 20260508053130 | 43 | 0 | 0.0 | 5.0 | 0.00 | 0.00 | 0.00 | 86 | 1017.2 |
| 20260508052630 | 42 | 0 | 0.0 | 5.0 | 0.00 | 0.00 | 0.00 | 87 | 1017.2 |
| 20260508052130 | 41 | 0 | 1.0 | 5.0 | 0.00 | 0.00 | 0.00 | 87 | 1017.2 |
| 20260508051630 | 41 | 0 | 5.0 | 6.0 | 0.00 | 0.00 | 0.00 | 87 | 1017.2 |
| 20260508050630 | 41 | 0 | 5.0 | 8.0 | 0.00 | 0.00 | 0.00 | 88 | 1017.2 |
| 20260508050130 | 41 | 1 | 6.0 | 7.0 | 0.00 | 0.00 | 0.00 | 87 | 1017.3 |
| 20260508044630 | 39 | 2 | 1.0 | 3.0 | 0.00 | 0.00 | 0.00 | 88 | 1017.6 |
| 20260508044130 | 39 | 3 | 1.0 | 3.0 | 0.00 | 0.00 | 0.00 | 87 | 1017.5 |
| 20260508043630 | 39 | 0 | 2.0 | 3.0 | 0.00 | 0.00 | 0.00 | 87 | 1017.4 |
| 20260508043130 | 38 | 0 | 1.0 | 3.0 | 0.00 | 0.00 | 0.00 | 87 | 1017.4 |
| 20260508042630 | 38 | 0 | 0.0 | 3.0 | 0.00 | 0.00 | 0.00 | 88 | 1017.4 |
| 20260508041630 | 38 | 0 | 1.0 | 3.0 | 0.00 | 0.00 | 0.00 | 87 | 1017.3 |
| 20260508040630 | 38 | 0 | 0.0 | 2.0 | 0.00 | 0.00 | 0.00 | 86 | 1017.2 |
| 20260508040130 | 38 | 0 | 1.0 | 3.0 | 0.00 | 0.00 | 0.00 | 86 | 1017.2 |
| 20260508035630 | 38 | 0 | 1.0 | 3.0 | 0.00 | 0.00 | 0.00 | 86 | 1017.2 |
| 20260508035130 | 38 | 0 | 2.0 | 3.0 | 0.00 | 0.00 | 0.00 | 85 | 1017.2 |
| 20260508034630 | 37 | 0 | 2.0 | 3.0 | 0.00 | 0.00 | 0.00 | 84 | 1017.2 |
| 20260508034130 | 37 | 0 | 2.0 | 3.0 | 0.00 | 0.00 | 0.00 | 84 | 1017.2 |
| 20260508033629 | 37 | 0 | 2.0 | 5.0 | 0.00 | 0.00 | 0.00 | 83 | 1017.2 |
| 20260508033131 | 37 | 4 | 2.0 | 3.0 | 0.00 | 0.00 | 0.00 | 83 | 1017.2 |
| 20260508032630 | 37 | 11 | 1.0 | 3.0 | 0.00 | 0.00 | 0.00 | 83 | 1017.2 |
| 20260508032129 | 37 | 13 | 3.0 | 3.0 | 0.00 | 0.00 | 0.00 | 83 | 1017.3 |
| 20260508031130 | 38 | 18 | 0.0 | 0.0 | 0.00 | 0.00 | 0.00 | 82 | 1017.3 |
| 20260508030130 | 38 | 12 | 0.0 | 0.0 | 0.00 | 0.00 | 0.00 | 82 | 1017.4 |
| 20260508025630 | 38 | 6 | 0.0 | 0.0 | 0.00 | 0.00 | 0.00 | 82 | 1017.4 |
| 20260508025130 | 38 | 9 | 0.0 | 0.0 | 0.00 | 0.00 | 0.00 | 82 | 1017.4 |
| 20260508024629 | 38 | 17 | 0.0 | 0.0 | 0.00 | 0.00 | 0.00 | 82 | 1017.5 |
| 20260508023630 | 38 | 19 | 3.0 | 5.0 | 0.00 | 0.00 | 0.00 | 82 | 1017.5 |
| 20260508023129 | 38 | 19 | 2.0 | 3.0 | 0.00 | 0.00 | 0.00 | 82 | 1017.5 |
| 20260508022629 | 38 | 12 | 1.0 | 3.0 | 0.00 | 0.00 | 0.00 | 82 | 1017.5 |
| 20260508022130 | 38 | 19 | 1.0 | 2.0 | 0.00 | 0.00 | 0.00 | 82 | 1017.6 |
| 20260508021630 | 38 | 18 | 0.0 | 2.0 | 0.00 | 0.00 | 0.00 | 82 | 1017.6 |
| 20260508021130 | 38 | 20 | 0.0 | 2.0 | 0.00 | 0.00 | 0.00 | 82 | 1017.6 |
| 20260508020630 | 38 | 20 | 0.0 | 2.0 | 0.00 | 0.00 | 0.00 | 82 | 1017.6 |
| 20260508020130 | 38 | 19 | 1.0 | 2.0 | 0.00 | 0.00 | 0.00 | 82 | 1017.6 |
| 20260508015629 | 38 | 19 | 0.0 | 2.0 | 0.00 | 0.00 | 0.00 | 82 | 1017.5 |
| 20260508015129 | 38 | 18 | 1.0 | 2.0 | 0.00 | 0.00 | 0.00 | 82 | 1017.6 |
| 20260508014130 | 38 | 17 | 1.0 | 2.0 | 0.00 | 0.00 | 0.00 | 83 | 1017.7 |
| 20260508013629 | 38 | 17 | 2.0 | 3.0 | 0.00 | 0.00 | 0.00 | 83 | 1017.7 |
| 20260508013130 | 39 | 18 | 2.0 | 5.0 | 0.00 | 0.00 | 0.00 | 83 | 1017.6 |
| 20260508012130 | 39 | 13 | 0.0 | 2.0 | 0.00 | 0.00 | 0.00 | 83 | 1017.7 |
| 20260508011630 | 39 | 10 | 1.0 | 2.0 | 0.00 | 0.01 | 0.00 | 83 | 1017.7 |
| 20260508011129 | 39 | 13 | 0.0 | 1.0 | 0.00 | 0.01 | 0.00 | 83 | 1017.7 |
| 20260508005629 | 39 | 14 | 1.0 | 2.0 | 0.00 | 0.01 | 0.00 | 83 | 1017.7 |
| 20260508004630 | 39 | 6 | 0.0 | 2.0 | 0.00 | 0.01 | 0.00 | 83 | 1017.6 |
| 20260508004130 | 39 | 7 | 0.0 | 2.0 | 0.00 | 0.01 | 0.00 | 82 | 1017.6 |
| 20260508003129 | 39 | 7 | 0.0 | 0.0 | 0.00 | 0.01 | 0.00 | 82 | 1017.6 |
| 20260508002629 | 39 | 12 | 0.0 | 1.0 | 0.00 | 0.01 | 0.00 | 82 | 1017.6 |
| 20260508002129 | 39 | 15 | 0.0 | 0.0 | 0.00 | 0.01 | 0.00 | 82 | 1017.7 |
| 20260508001630 | 38 | 11 | 0.0 | 0.0 | 0.00 | 0.01 | 0.00 | 82 | 1017.6 |
| 20260508001129 | 38 | 14 | 0.0 | 0.0 | 0.00 | 0.01 | 0.00 | 82 | 1017.7 |
| 20260508000130 | 38 | 9 | 2.0 | 3.0 | 0.00 | 0.01 | 0.00 | 83 | 1017.7 |
| 20260507235630 | 38 | 13 | 1.0 | 2.0 | 0.00 | 0.01 | 0.00 | 83 | 1017.7 |
| 20260507235130 | 38 | 6 | 0.0 | 3.0 | 0.00 | 0.01 | 0.00 | 82 | 1017.8 |
| 20260507234629 | 38 | 6 | 1.0 | 2.0 | 0.00 | 0.01 | 0.00 | 82 | 1017.7 |
| 20260507233629 | 38 | 11 | 1.0 | 3.0 | 0.00 | 0.01 | 0.00 | 82 | 1017.7 |
| 20260507233130 | 38 | 15 | 1.0 | 2.0 | 0.00 | 0.01 | 0.00 | 82 | 1017.8 |
| 20260507232630 | 38 | 11 | 1.0 | 3.0 | 0.00 | 0.01 | 0.00 | 82 | 1017.9 |
| 20260507232129 | 39 | 13 | 1.0 | 2.0 | 0.00 | 0.01 | 0.00 | 82 | 1018.0 |
| 20260507231629 | 39 | 13 | 1.0 | 2.0 | 0.00 | 0.01 | 0.00 | 82 | 1018.1 |
| 20260507231129 | 39 | 11 | 1.0 | 3.0 | 0.00 | 0.01 | 0.00 | 82 | 1018.1 |
| 20260507230630 | 39 | 10 | 1.0 | 2.0 | 0.00 | 0.01 | 0.00 | 82 | 1018.2 |
| 20260507230130 | 39 | 18 | 2.0 | 3.0 | 0.00 | 0.01 | 0.00 | 82 | 1018.2 |
| 20260507225630 | 39 | 7 | 1.0 | 5.0 | 0.00 | 0.01 | 0.00 | 82 | 1018.1 |
| 20260507225130 | 39 | 16 | 1.0 | 5.0 | 0.00 | 0.01 | 0.00 | 82 | 1018.2 |
| 20260507224629 | 39 | 11 | 2.0 | 5.0 | 0.00 | 0.01 | 0.00 | 82 | 1018.1 |
| 20260507223629 | 39 | 9 | 2.0 | 3.0 | 0.00 | 0.01 | 0.00 | 82 | 1018.1 |
| 20260507223129 | 39 | 10 | 1.0 | 2.0 | 0.00 | 0.01 | 0.00 | 82 | 1018.0 |
| 20260507222129 | 39 | 12 | 2.0 | 3.0 | 0.00 | 0.01 | 0.00 | 82 | 1017.9 |
| 20260507221629 | 39 | 14 | 0.0 | 1.0 | 0.00 | 0.01 | 0.00 | 82 | 1017.9 |
| 20260507221130 | 39 | 9 | 0.0 | 1.0 | 0.00 | 0.01 | 0.00 | 82 | 1017.9 |
| 20260507220630 | 39 | 23 | 0.0 | 1.0 | 0.00 | 0.01 | 0.00 | 82 | 1018.0 |
| 20260507220130 | 39 | 16 | 2.0 | 5.0 | 0.00 | 0.01 | 0.00 | 82 | 1018.0 |
| 20260507215629 | 39 | 10 | 1.0 | 2.0 | 0.00 | 0.01 | 0.01 | 82 | 1017.9 |
| 20260507215129 | 39 | 13 | 1.0 | 3.0 | 0.00 | 0.01 | 0.01 | 82 | 1017.9 |
| 20260507214629 | 39 | 11 | 1.0 | 3.0 | 0.00 | 0.01 | 0.01 | 82 | 1017.9 |
| 20260507214129 | 39 | 9 | 2.0 | 3.0 | 0.00 | 0.01 | 0.01 | 82 | 1018.0 |
| 20260507213629 | 39 | 7 | 2.0 | 3.0 | 0.00 | 0.01 | 0.01 | 82 | 1018.0 |
| 20260507213129 | 39 | 12 | 3.0 | 5.0 | 0.00 | 0.01 | 0.01 | 82 | 1017.9 |
| 20260507212129 | 39 | 13 | 2.0 | 5.0 | 0.00 | 0.01 | 0.01 | 82 | 1017.9 |
| 20260507211629 | 39 | 9 | 2.0 | 3.0 | 0.00 | 0.01 | 0.01 | 82 | 1017.9 |
| 20260507211130 | 39 | 13 | 2.0 | 3.0 | 0.00 | 0.01 | 0.01 | 82 | 1018.0 |
| 20260507210629 | 39 | 15 | 2.0 | 5.0 | 0.00 | 0.01 | 0.01 | 82 | 1017.9 |
| 20260507210130 | 39 | 6 | 2.0 | 3.0 | 0.00 | 0.01 | 0.01 | 82 | 1018.0 |
| 20260507205629 | 39 | 9 | 1.0 | 5.0 | 0.00 | 0.01 | 0.01 | 82 | 1017.9 |
| 20260507205129 | 39 | 10 | 3.0 | 5.0 | 0.00 | 0.01 | 0.01 | 82 | 1017.9 |
| 20260507204629 | 40 | 10 | 1.0 | 3.0 | 0.00 | 0.01 | 0.01 | 82 | 1018.0 |
| 20260507204129 | 40 | 7 | 3.0 | 6.0 | 0.00 | 0.01 | 0.01 | 82 | 1017.9 |
| 20260507203629 | 40 | 11 | 5.0 | 7.0 | 0.00 | 0.01 | 0.01 | 82 | 1017.8 |
| 20260507203129 | 40 | 15 | 5.0 | 8.0 | 0.00 | 0.01 | 0.01 | 82 | 1017.8 |
| 20260507202629 | 40 | 9 | 2.0 | 5.0 | 0.00 | 0.01 | 0.01 | 82 | 1017.8 |
| 20260507201629 | 40 | 13 | 2.0 | 5.0 | 0.00 | 0.01 | 0.01 | 82 | 1017.8 |
| 20260507201129 | 40 | 12 | 4.0 | 7.0 | 0.00 | 0.01 | 0.01 | 82 | 1017.7 |
| 20260507200630 | 40 | 14 | 2.0 | 5.0 | 0.00 | 0.01 | 0.01 | 82 | 1017.7 |
| 20260507200130 | 40 | 11 | 2.0 | 5.0 | 0.00 | 0.01 | 0.01 | 82 | 1017.7 |
| 20260507195129 | 40 | 15 | 3.0 | 6.0 | 0.00 | 0.01 | 0.01 | 82 | 1017.6 |
| 20260507194630 | 39 | 14 | 5.0 | 8.0 | 0.00 | 0.01 | 0.01 | 82 | 1017.6 |
| 20260507194129 | 40 | 13 | 1.0 | 3.0 | 0.00 | 0.01 | 0.01 | 82 | 1017.5 |
| 20260507193129 | 40 | 21 | 2.0 | 5.0 | 0.00 | 0.01 | 0.01 | 82 | 1017.4 |
| 20260507192130 | 40 | 11 | 2.0 | 3.0 | 0.00 | 0.01 | 0.01 | 82 | 1017.2 |
| 20260507191629 | 39 | 13 | 5.0 | 7.0 | 0.00 | 0.01 | 0.01 | 82 | 1017.2 |
| 20260507191129 | 39 | 12 | 2.0 | 6.0 | 0.00 | 0.01 | 0.01 | 82 | 1017.1 |
| 20260507190629 | 39 | 17 | 3.0 | 6.0 | 0.00 | 0.01 | 0.01 | 82 | 1017.1 |
| 20260507190129 | 40 | 14 | 5.0 | 7.0 | 0.00 | 0.01 | 0.01 | 82 | 1017.1 |
| 20260507185629 | 39 | 14 | 3.0 | 7.0 | 0.00 | 0.01 | 0.01 | 82 | 1017.1 |
| 20260507185129 | 40 | 18 | 3.0 | 7.0 | 0.00 | 0.01 | 0.01 | 82 | 1017.0 |
| 20260507184629 | 40 | 15 | 5.0 | 9.0 | 0.00 | 0.01 | 0.01 | 82 | 1016.9 |
| 20260507184129 | 40 | 18 | 5.0 | 9.0 | 0.00 | 0.01 | 0.01 | 82 | 1016.9 |
| 20260507183629 | 40 | 20 | 3.0 | 5.0 | 0.00 | 0.01 | 0.01 | 83 | 1016.9 |
| 20260507183129 | 40 | 16 | 4.0 | 7.0 | 0.00 | 0.01 | 0.01 | 83 | 1016.8 |
| 20260507182629 | 40 | 9 | 5.0 | 9.0 | 0.00 | 0.01 | 0.01 | 83 | 1016.8 |
| 20260507182129 | 40 | 18 | 2.0 | 6.0 | 0.00 | 0.01 | 0.01 | 83 | 1016.7 |
| 20260507181629 | 40 | 21 | 3.0 | 8.0 | 0.00 | 0.01 | 0.01 | 84 | 1016.6 |
| 20260507181129 | 40 | 16 | 4.0 | 7.0 | 0.00 | 0.01 | 0.01 | 84 | 1016.5 |
| 20260507180629 | 40 | 18 | 4.0 | 9.0 | 0.00 | 0.01 | 0.01 | 85 | 1016.6 |
| 20260507175629 | 40 | 20 | 1.0 | 3.0 | 0.00 | 0.01 | 0.01 | 87 | 1016.4 |
| 20260507174629 | 40 | 17 | 4.0 | 8.0 | 0.00 | 0.01 | 0.01 | 87 | 1016.3 |
| 20260507174129 | 40 | 19 | 4.0 | 7.0 | 0.00 | 0.01 | 0.01 | 87 | 1016.3 |
| 20260507173629 | 40 | 19 | 1.0 | 2.0 | 0.00 | 0.01 | 0.01 | 86 | 1016.2 |
| 20260507173129 | 40 | 19 | 2.0 | 3.0 | 0.00 | 0.01 | 0.01 | 86 | 1016.2 |
| 20260507172129 | 41 | 19 | 2.0 | 5.0 | 0.00 | 0.01 | 0.01 | 87 | 1016.2 |
| 20260507171129 | 41 | 19 | 3.0 | 6.0 | 0.00 | 0.01 | 0.01 | 88 | 1016.2 |
| 20260507170630 | 41 | 16 | 3.0 | 5.0 | 0.00 | 0.01 | 0.01 | 88 | 1016.1 |
| 20260507170129 | 41 | 16 | 2.0 | 10.0 | 0.00 | 0.01 | 0.01 | 88 | 1016.1 |
| 20260507165129 | 41 | 14 | 3.0 | 6.0 | 0.00 | 0.01 | 0.01 | 88 | 1016.1 |
| 20260507164629 | 41 | 19 | 5.0 | 7.0 | 0.00 | 0.01 | 0.01 | 88 | 1016.2 |
| 20260507163629 | 41 | 20 | 3.0 | 6.0 | 0.00 | 0.01 | 0.01 | 88 | 1016.1 |
| 20260507163129 | 41 | 16 | 5.0 | 8.0 | 0.00 | 0.01 | 0.01 | 88 | 1016.1 |
| 20260507161629 | 41 | 17 | 5.0 | 10.0 | 0.00 | 0.01 | 0.01 | 88 | 1016.0 |
| 20260507161129 | 41 | 18 | 5.0 | 9.0 | 0.00 | 0.01 | 0.01 | 88 | 1015.9 |
| 20260507160629 | 41 | 16 | 6.0 | 12.0 | 0.00 | 0.01 | 0.01 | 87 | 1015.8 |
| 20260507155129 | 43 | 18 | 7.0 | 10.0 | 0.00 | 0.01 | 0.01 | 87 | 1015.7 |
| 20260507154629 | 45 | 17 | 2.0 | 6.0 | 0.00 | 0.02 | 0.01 | 88 | 1015.7 |
| 20260507153629 | 45 | 17 | 2.0 | 3.0 | 0.00 | 0.02 | 0.01 | 88 | 1015.7 |
| 20260507153128 | 45 | 19 | 1.0 | 3.0 | 0.00 | 0.02 | 0.01 | 87 | 1015.7 |
| 20260507152629 | 45 | 18 | 2.0 | 6.0 | 0.00 | 0.02 | 0.01 | 82 | 1015.6 |
| 20260507152129 | 45 | 14 | 2.0 | 7.0 | 0.00 | 0.02 | 0.01 | 86 | 1015.6 |
| 20260507151129 | 45 | 18 | 1.0 | 5.0 | 0.00 | 0.02 | 0.01 | 84 | 1015.6 |
| 20260507150629 | 45 | 17 | 3.0 | 6.0 | 0.00 | 0.02 | 0.01 | 80 | 1015.5 |
| 20260507150129 | 45 | 22 | 2.0 | 5.0 | 0.00 | 0.02 | 0.01 | 76 | 1015.4 |
| 20260507145629 | 45 | 16 | 1.0 | 3.0 | 0.00 | 0.02 | 0.01 | 79 | 1015.3 |
| 20260507145129 | 45 | 10 | 2.0 | 6.0 | 0.00 | 0.02 | 0.01 | 79 | 1015.3 |
| 20260507144628 | 45 | 15 | 2.0 | 5.0 | 0.00 | 0.02 | 0.01 | 84 | 1015.4 |
| 20260507144129 | 45 | 9 | 3.0 | 5.0 | 0.00 | 0.02 | 0.01 | 83 | 1015.3 |
| 20260507143628 | 45 | 19 | 2.0 | 5.0 | 0.00 | 0.02 | 0.01 | 87 | 1015.4 |
| 20260507143131 | 44 | 15 | 1.0 | 5.0 | 0.00 | 0.02 | 0.01 | 81 | 1015.4 |
| 20260507142629 | 44 | 21 | 3.0 | 10.0 | 0.00 | 0.02 | 0.01 | 81 | 1015.3 |
| 20260507142128 | 45 | 22 | 2.0 | 5.0 | 0.00 | 0.02 | 0.01 | 86 | 1015.3 |
| 20260507141629 | 44 | 17 | 1.0 | 5.0 | 0.00 | 0.02 | 0.01 | 84 | 1015.4 |
| 20260507141129 | 44 | 16 | 2.0 | 5.0 | 0.00 | 0.02 | 0.01 | 83 | 1015.3 |
| 20260507140629 | 43 | 17 | 5.0 | 8.0 | 0.00 | 0.02 | 0.01 | 78 | 1015.3 |
| 20260507140129 | 43 | 15 | 4.0 | 7.0 | 0.00 | 0.02 | 0.01 | 84 | 1015.3 |
| 20260507135629 | 41 | 16 | 2.0 | 7.0 | 0.00 | 0.02 | 0.01 | 88 | 1015.3 |
| 20260507135129 | 40 | 11 | 3.0 | 6.0 | 0.00 | 0.02 | 0.01 | 88 | 1015.4 |
| 20260507134129 | 39 | 1 | 2.0 | 9.0 | 0.00 | 0.02 | 0.01 | 87 | 1015.5 |
| 20260507133629 | 40 | 9 | 4.0 | 10.0 | 0.00 | 0.02 | 0.01 | 87 | 1015.7 |
| 20260507133129 | 40 | 0 | 5.0 | 9.0 | 0.00 | 0.02 | 0.01 | 87 | 1015.8 |
| 20260507132629 | 41 | 18 | 4.0 | 8.0 | 0.00 | 0.02 | 0.01 | 88 | 1015.7 |
| 20260507132129 | 41 | 5 | 3.0 | 9.0 | 0.00 | 0.02 | 0.01 | 88 | 1015.7 |
| 20260507131629 | 42 | 0 | 3.0 | 15.0 | 0.00 | 0.03 | 0.01 | 88 | 1015.8 |
| 20260507131129 | 42 | 5 | 5.0 | 8.0 | 0.00 | 0.03 | 0.01 | 87 | 1015.9 |
| 20260507130129 | 42 | 11 | 5.0 | 12.0 | 0.00 | 0.04 | 0.01 | 87 | 1016.0 |
| 20260507125628 | 42 | 11 | 4.0 | 8.0 | 0.00 | 0.06 | 0.01 | 87 | 1015.8 |
| 20260507125130 | 42 | 3 | 3.0 | 6.0 | 0.00 | 0.08 | 0.01 | 88 | 1015.6 |
| 20260507124629 | 41 | 18 | 2.0 | 6.0 | 0.00 | 0.16 | 0.01 | 87 | 1015.7 |
| 20260507124129 | 41 | 15 | 3.0 | 7.0 | 0.00 | 0.18 | 0.01 | 87 | 1015.7 |
| 20260507123629 | 40 | 17 | 2.0 | 8.0 | 0.00 | 0.20 | 0.01 | 86 | 1015.6 |
| 20260507123128 | 40 | 10 | 4.0 | 8.0 | 0.00 | 0.21 | 0.01 | 85 | 1015.5 |
| 20260507122628 | 40 | 18 | 3.0 | 8.0 | 0.00 | 0.21 | 0.01 | 85 | 1015.4 |
| 20260507122129 | 40 | 17 | 4.0 | 7.0 | 0.00 | 0.23 | 0.01 | 84 | 1015.4 |
| 20260507121629 | 40 | 17 | 3.0 | 6.0 | 0.00 | 0.24 | 0.01 | 84 | 1015.3 |
| 20260507120629 | 40 | 18 | 2.0 | 5.0 | 0.00 | 0.26 | 0.01 | 85 | 1015.3 |
| 20260507115628 | 40 | 17 | 3.0 | 8.0 | 0.00 | 0.28 | 0.01 | 85 | 1015.4 |
| 20260507115129 | 40 | 13 | 4.0 | 8.0 | 0.00 | 0.28 | 0.01 | 85 | 1015.4 |
| 20260507114629 | 41 | 17 | 5.0 | 8.0 | 0.00 | 0.31 | 0.01 | 85 | 1015.4 |
| 20260507114129 | 41 | 18 | 3.0 | 6.0 | 0.00 | 0.32 | 0.01 | 85 | 1015.4 |
| 20260507113629 | 41 | 12 | 3.0 | 7.0 | 0.00 | 0.33 | 0.01 | 84 | 1015.3 |
| 20260507113129 | 40 | 14 | 4.0 | 7.0 | 0.00 | 0.34 | 0.01 | 84 | 1015.4 |
| 20260507112629 | 40 | 19 | 5.0 | 13.0 | 0.00 | 0.34 | 0.01 | 84 | 1015.4 |
| 20260507112129 | 41 | 16 | 6.0 | 9.0 | 0.00 | 0.35 | 0.01 | 84 | 1015.3 |
| 20260507111129 | 41 | 15 | 6.0 | 9.0 | 0.00 | 0.36 | 0.01 | 84 | 1015.1 |
| 20260507110129 | 41 | 19 | 3.0 | 8.0 | 0.00 | 0.36 | 0.01 | 86 | 1015.2 |
| 20260507105629 | 42 | 12 | 4.0 | 6.0 | 0.00 | 0.36 | 0.01 | 86 | 1015.2 |
| 20260507105129 | 43 | 16 | 2.0 | 6.0 | 0.00 | 0.36 | 0.01 | 86 | 1015.3 |
| 20260507104628 | 43 | 15 | 3.0 | 7.0 | 0.00 | 0.36 | 0.01 | 87 | 1015.1 |
| 20260507104128 | 43 | 19 | 4.0 | 9.0 | 0.00 | 0.36 | 0.01 | 87 | 1015.2 |
| 20260507103628 | 44 | 18 | 8.0 | 12.0 | 0.00 | 0.36 | 0.01 | 87 | 1015.2 |
| 20260507103129 | 43 | 18 | 5.0 | 8.0 | 0.00 | 0.37 | 0.01 | 87 | 1015.3 |
| 20260507102629 | 42 | 18 | 5.0 | 12.0 | 0.00 | 0.37 | 0.01 | 88 | 1015.4 |
| 20260507102129 | 43 | 14 | 6.0 | 10.0 | 0.00 | 0.37 | 0.01 | 88 | 1015.4 |
| 20260507101629 | 45 | 16 | 5.0 | 10.0 | 0.00 | 0.37 | 0.01 | 87 | 1015.4 |
| 20260507100629 | 43 | 17 | 6.0 | 10.0 | 0.00 | 0.37 | 0.01 | 88 | 1015.4 |
| 20260507100129 | 44 | 16 | 7.0 | 10.0 | 0.00 | 0.38 | 0.01 | 88 | 1015.4 |
| 20260507095628 | 43 | 16 | 4.0 | 10.0 | 0.00 | 0.39 | 0.01 | 86 | 1015.4 |
| 20260507095129 | 42 | 17 | 6.0 | 10.0 | 0.00 | 0.39 | 0.01 | 86 | 1015.4 |
| 20260507094628 | 42 | 17 | 6.0 | 9.0 | 0.00 | 0.39 | 0.01 | 87 | 1015.4 |
| 20260507094128 | 43 | 16 | 4.0 | 10.0 | 0.00 | 0.39 | 0.01 | 84 | 1015.4 |
| 20260507093629 | 41 | 15 | 7.0 | 10.0 | 0.00 | 0.39 | 0.01 | 85 | 1015.2 |
| 20260507093129 | 41 | 16 | 4.0 | 9.0 | 0.00 | 0.39 | 0.01 | 84 | 1015.2 |
| 20260507092628 | 41 | 17 | 5.0 | 7.0 | 0.00 | 0.39 | 0.01 | 85 | 1015.2 |
| 20260507092128 | 41 | 18 | 2.0 | 6.0 | 0.00 | 0.39 | 0.01 | 85 | 1015.2 |
| 20260507091629 | 41 | 17 | 2.0 | 8.0 | 0.00 | 0.39 | 0.01 | 87 | 1015.1 |
| 20260507091128 | 42 | 14 | 3.0 | 6.0 | 0.00 | 0.39 | 0.01 | 87 | 1015.1 |
| 20260507090629 | 42 | 14 | 0.0 | 3.0 | 0.00 | 0.39 | 0.01 | 87 | 1015.1 |
| 20260507090129 | 42 | 15 | 2.0 | 3.0 | 0.00 | 0.39 | 0.01 | 88 | 1015.0 |
| 20260507085629 | 43 | 15 | 1.0 | 2.0 | 0.00 | 0.39 | 0.01 | 85 | 1015.0 |
| 20260507085128 | 42 | 15 | 1.0 | 5.0 | 0.00 | 0.39 | 0.01 | 85 | 1015.0 |
| 20260507084129 | 42 | 14 | 3.0 | 5.0 | 0.00 | 0.41 | 0.01 | 88 | 1014.8 |
| 20260507083628 | 43 | 14 | 0.0 | 2.0 | 0.00 | 0.41 | 0.01 | 89 | 1014.9 |
| 20260507082628 | 43 | 14 | 1.0 | 3.0 | 0.00 | 0.43 | 0.01 | 88 | 1014.8 |
| 20260507082129 | 43 | 15 | 3.0 | 6.0 | 0.00 | 0.43 | 0.01 | 88 | 1014.8 |
| 20260507081628 | 42 | 13 | 3.0 | 7.0 | 0.00 | 0.43 | 0.01 | 88 | 1014.7 |
| 20260507080629 | 41 | 16 | 2.0 | 5.0 | 0.00 | 0.45 | 0.01 | 84 | 1014.7 |
| 20260507080130 | 40 | 16 | 2.0 | 5.0 | 0.00 | 0.45 | 0.01 | 84 | 1014.7 |
| 20260507075128 | 39 | 15 | 6.0 | 7.0 | 0.00 | 0.50 | 0.01 | 89 | 1014.6 |
| 20260507074629 | 39 | 15 | 4.0 | 6.0 | 0.00 | 0.51 | 0.01 | 89 | 1014.5 |
| 20260507074128 | 40 | 15 | 4.0 | 5.0 | 0.00 | 0.53 | 0.01 | 89 | 1014.5 |
| 20260507073628 | 41 | 15 | 2.0 | 3.0 | 0.00 | 0.54 | 0.01 | 89 | 1014.5 |